カタログに戻る

COSMOS 1823 DEB

運用中LEO
NORAD 26111·DEBRIS·🇷🇺 Russia

打ち上げ Feb 20, 1987 から Plesetsk Cosmodrome

Loading…

次のパス (今後24時間)

TLE

最新Source: Space-Track

元期: Sep 14, 2026, 10:28 UTC

1 26111U 87020DS  26257.43661314  .00000045  00000-0  44939-3 0  9999
2 26111  73.5977 260.6668 0029839  96.8991  56.5797 12.42974807793606

AllMySatでCOSMOS 1823 DEBをリアルタイム追跡

Download on the App Store